Location: *
(46.4833°N, 7.6667°E)
Time: 17:27:18
(UTC+00:00)

Resurs 01 Rocket - Pass Details

Date: 27 February 2020
Orbit: 634 x 645 km, 98.0° (Epoch: 28 March)

Event Time Altitude Azimuth Distance (km) Brightness Sun altitude
Exits shadow 20:48:57 17° 315° (NW) 1,615 4.3 -36.9°
Drops below altitude 10° 20:50:15 10° 326° (NW) 2,041 4.8 -37.1°
Sets 20:52:42 0° 337° (NNW) 2,954 5.7 -37.5°
